カタログに戻る

THOR ABLESTAR DEB

運用中LEO
NORAD 403·DEBRIS·🇺🇸 United States

打ち上げ Jun 29, 1961 から Cape Canaveral Space Force Station

Loading…

次のパス (今後24時間)

TLE

最新Source: Space-Track

元期: Sep 14, 2026, 11:18 UTC

1 00403U 61015EC  26257.47143541 -.00000023  00000-0  48052-4 0  9990
2 00403  66.8400  72.1060 0015901 127.6454 260.5056 13.81247771283484

AllMySatでTHOR ABLESTAR DEBをリアルタイム追跡

Download on the App Store